{"data":{"norad_id":56472,"epoch":"2026-09-20T22:00:03.000096Z","epoch_age_seconds":76000,"freshness":"FRESH","line1":"1 56472U 23064AA  26263.91670139 -.00003628  00000+0 -23753-3 0  9997","line2":"2 56472  70.0000 352.1104 0004175 295.2759 122.7141 15.06623537  5714","mean_motion":15.06623537,"eccentricity":0.0004175,"inclination_deg":70,"raan_deg":352.1104,"arg_perigee_deg":295.2759,"mean_anomaly_deg":122.7141,"bstar":-0.00023753,"rev_number":571,"period_min":95.577957242546,"perigee_km":543.63548691219,"apogee_km":549.41758096303,"semimajor_km":6924.6635339376,"source":"CELESTRAK","updated_at":"2026-09-21T09:00:33.445925Z"}}